Regional Weather Roundup
Issued by NWS

Home | Current Version | Previous Version | Graphics & Text | Print | Product List | Glossary On
Versions: 1 2 3 4 5 6 7 8 9 10 11 12 13 14 15 16 17 18 19 20 21 22 23 24 25 26 27 28 29 30 31 32 33 34 35 36 37 38 39 40 41 42 43 44 45 46 47 48 49 50
000
ASUS43 KOAX 281610
RWRNE

WEATHER ROUNDUP FOR NEBRASKA
NATIONAL WEATHER SERVICE OMAHA NE
1100 AM CDT THU MAY 28 2015

NOTES: SATELLITE DATA IS BEING USED TO AUGMENT CLOUD COVER ABOVE
       12000 FEET.
       "FAIR" INDICATES FEW OR NO CLOUDS BELOW 12,000 FEET WITH NO
       SIGNIFICANT WEATHER AND/OR OBSTRUCTIONS TO VISIBILITY.

  * THESE STATIONS DO NOT REPORT WEATHER SUCH AS RAIN...SNOW OR FOG.

NEZ001>004-019>022-054>056-281700-
NEBRASKA PANHANDLE

CITY           SKY/WX    TMP DP  RH WIND       PRES   REMARKS
SCOTTSBLUFF    MOSUNNY   67  51  56 W7        30.00F
ALLIANCE       PTSUNNY   66  55  67 W10       29.97F
CHADRON        MOSUNNY   68  52  56 NW8       29.95S
KIMBALL          N/A    N/A N/A N/A MISG        N/A
SIDNEY         MOSUNNY   68  54  60 N7        30.01S
$$

NEZ057>060-069>072-079>082-281700-
SOUTHWEST NEBRASKA

CITY           SKY/WX    TMP DP  RH WIND       PRES   REMARKS
NORTH PLATTE   PTSUNNY   67  57  70 S8        29.99F
LEXINGTON      PTSUNNY   66  60  79 S15       30.00F
MCCOOK         CLOUDY    63  58  83 SE14      30.00F
OGALLALA       CLOUDY    62  57  86 CALM      29.99F
$$

NEZ005>010-023>029-035>040-094-281700-
NORTH CENTRAL NEBRASKA

CITY           SKY/WX    TMP DP  RH WIND       PRES   REMARKS
VALENTINE      MOSUNNY   70  56  61 S5        29.94F
AINSWORTH      MOSUNNY   72  59  64 S10       29.96F
BROKEN BOW     PTSUNNY   70  58  65 S17       29.99F
O`NEILL        MOSUNNY   74  63  68 S12G20    29.97F
ORD            PTSUNNY   71  59  65 SE9       29.98F
THEDFORD       PTSUNNY   69  59  70 S9        29.99S
$$

NEZ041-046>049-061>064-073>077-083>087-281700-
SOUTH CENTRAL NEBRASKA

CITY           SKY/WX    TMP DP  RH WIND       PRES   REMARKS
GRAND ISLAND   MOSUNNY   70  59  68 S9        29.99F
AURORA         PTSUNNY   71  63  74 S8        29.99F
HASTINGS       CLOUDY    70  60  70 S7        29.99F
HEBRON         PTSUNNY   72  60  64 S8        30.01S
HOLDREGE       CLOUDY    65  57  74 S13       30.01F
KEARNEY *      CLOUDY    70  57  64 SE12      30.00F
YORK           PTSUNNY   73  63  68 S12       29.99F
$$

NEZ011>018-030>034-042>045-281700-
NORTHEAST NEBRASKA

CITY           SKY/WX    TMP DP  RH WIND       PRES   REMARKS
NORFOLK        MOSUNNY   74  59  59 S9        29.99F
ALBION         MOSUNNY   75  57  53 S7        29.98F
BLAIR          CLOUDY    68  59  73 SE8       30.02F
COLUMBUS *     PTSUNNY   66  61  82 S8        30.01F
FREMONT        CLOUDY    72  62  71 SE12      30.01F
TEKAMAH        CLOUDY    72  60  66 S14       30.01F
WAYNE          PTSUNNY   74  62  65 S13G21    30.00F
$$

NEZ050>053-065>068-078-088>093-281700-
SOUTHEAST NEBRASKA

CITY           SKY/WX    TMP DP  RH WIND       PRES   REMARKS
LINCOLN        CLOUDY    69  64  84 S7        30.01F
OMAHA EPPLEY   CLOUDY    69  60  73 S9        30.02F
BEATRICE       PTSUNNY   67  63  87 S7        30.02R
FALLS CITY     LGT RAIN  68  63  84 SE12      30.03S
NEBRASKA CITY  CLOUDY    67  63  89 SE8       30.03S
PLATTSMOUTH    CLOUDY    66  59  78 E7        30.02F
$$

NEZ044-045-051>053-067-281700-
OMAHA AREA

CITY           SKY/WX    TMP DP  RH WIND       PRES   REMARKS
OMAHA EPPLEY   CLOUDY    69  60  73 S9        30.02F
BLAIR          CLOUDY    68  59  73 SE8       30.02F
FREMONT        CLOUDY    72  62  71 SE12      30.01F
MILLARD        CLOUDY    68  62  79 E6        30.01F
OFFUTT AFB     CLOUDY    67  60  78 E8        30.01F
PLATTSMOUTH    CLOUDY    66  59  78 E7        30.02F
WAHOO          FAIR      68  61  78 S7        30.01F
$$



USA.gov is the U.S. government's official web portal to all federal, state and local government web resources and services.